MAS174 WMKK-VABB

Flight info

Callsign MAS174
Flight time N/A
Altitude 34000
Route BIKDU1D BIKDU Y501 RINBA Y502 DUBAX R325 PUT L515 OBMOG M770 SADUS L301 URKOK/N0472F360 L301 BUSBO L505 MELAX/N0431F240 W218 OPAKA EMRAK2A
Aircraft B738/M-SDE2E3FGHIRWXY/LB1

Departure

Time 2026-05-06 23:03
Airport Kuala Lumpur International Airport (WMKK)

Arrival

Time N/A
Airport Chhatrapati Shivaji Maharaj International Airport (VABB)
Time Latitude Longitude Altitude Speed Heading
2026-05-06 22:31 2.74956 101.71469 72 ft 0 kts 146°
2026-05-06 22:52 2.74965 101.71463 63 ft 3 kts 146°
2026-05-06 22:52 2.74981 101.71452 65 ft 3 kts 146°
2026-05-06 22:52 2.74996 101.71442 69 ft 2 kts 146°
2026-05-06 22:53 2.75010 101.71431 66 ft 3 kts 118°
2026-05-06 22:53 2.75013 101.71415 64 ft 3 kts 70°
2026-05-06 22:53 2.75005 101.71399 63 ft 2 kts 56°
2026-05-06 22:53 2.75002 101.71394 66 ft 0 kts 56°
2026-05-06 22:58 2.75010 101.71407 65 ft 5 kts 56°
2026-05-06 22:58 2.75036 101.71444 64 ft 8 kts 56°
2026-05-06 22:58 2.75072 101.71498 68 ft 10 kts 56°
2026-05-06 22:58 2.75111 101.71557 66 ft 10 kts 56°
2026-05-06 22:59 2.75145 101.71608 72 ft 10 kts 55°
2026-05-06 22:59 2.75185 101.71667 63 ft 10 kts 57°
2026-05-06 22:59 2.75190 101.71733 70 ft 10 kts 125°
2026-05-06 22:59 2.75134 101.71777 70 ft 10 kts 146°
2026-05-06 23:00 2.75076 101.71817 73 ft 10 kts 145°
2026-05-06 23:00 2.75020 101.71855 68 ft 10 kts 147°
2026-05-06 23:00 2.74964 101.71892 73 ft 9 kts 144°
2026-05-06 23:00 2.74909 101.71929 77 ft 10 kts 147°
2026-05-06 23:01 2.74834 101.71978 77 ft 15 kts 147°
2026-05-06 23:01 2.74738 101.72043 73 ft 17 kts 145°
2026-05-06 23:01 2.74704 101.72069 81 ft 4 kts 134°
2026-05-06 23:01 2.74688 101.72095 84 ft 5 kts 112°
2026-05-06 23:02 2.74696 101.72145 74 ft 11 kts 59°
2026-05-06 23:02 2.74755 101.72218 74 ft 15 kts 28°
2026-05-06 23:02 2.74864 101.72188 72 ft 19 kts 324°
2026-05-06 23:02 2.75087 101.72039 74 ft 71 kts 326°
2026-05-06 23:03 2.75681 101.71640 72 ft 133 kts 326°
2026-05-06 23:03 2.76596 101.71028 100 ft 180 kts 327°
2026-05-06 23:03 2.77653 101.70331 748 ft 180 kts 327°
2026-05-06 23:03 2.78718 101.69618 1362 ft 186 kts 327°
2026-05-06 23:04 2.79790 101.68909 2064 ft 189 kts 332°
2026-05-06 23:04 2.81124 101.68419 2243 ft 215 kts 344°
2026-05-06 23:04 2.82632 101.67933 2330 ft 239 kts 342°
2026-05-06 23:04 2.84234 101.67377 2752 ft 246 kts 341°
2026-05-06 23:05 2.85840 101.66805 3289 ft 250 kts 341°
2026-05-06 23:05 2.87499 101.66208 3740 ft 262 kts 340°
2026-05-06 23:05 2.89248 101.65578 4281 ft 271 kts 340°
2026-05-06 23:05 2.91091 101.65166 4937 ft 274 kts
2026-05-06 23:06 2.92931 101.65630 5641 ft 275 kts 27°
2026-05-06 23:06 2.94662 101.66457 6292 ft 279 kts 14°
2026-05-06 23:06 2.96603 101.66442 6869 ft 284 kts 346°
2026-05-06 23:06 2.98512 101.65893 7508 ft 288 kts 344°
2026-05-06 23:07 3.00445 101.65314 8116 ft 292 kts 343°
2026-05-06 23:07 3.02403 101.64732 8741 ft 295 kts 344°
2026-05-06 23:07 3.04389 101.64152 9361 ft 299 kts 344°
2026-05-06 23:07 3.06406 101.63572 9968 ft 302 kts 345°
2026-05-06 23:08 3.08452 101.62990 10372 ft 314 kts 345°
2026-05-06 23:08 3.10628 101.62378 10509 ft 334 kts 345°
2026-05-06 23:08 3.12136 101.61956 10605 ft 346 kts 345°
2026-05-06 23:08 3.14515 101.61292 10734 ft 364 kts 345°
2026-05-06 23:09 3.17010 101.60598 10848 ft 380 kts 345°
2026-05-06 23:09 3.19596 101.59881 11108 ft 390 kts 345°
2026-05-06 23:09 3.23073 101.58915 11753 ft 393 kts 346°
2026-05-06 23:09 3.24855 101.58420 12111 ft 394 kts 346°
2026-05-06 23:10 3.27502 101.57685 12600 ft 396 kts 346°
2026-05-06 23:10 3.30169 101.56946 13066 ft 399 kts 346°
2026-05-06 23:10 3.32824 101.56210 13524 ft 402 kts 346°
2026-05-06 23:10 3.35527 101.55460 13937 ft 404 kts 346°
2026-05-06 23:11 3.38249 101.54706 14345 ft 406 kts 346°
2026-05-06 23:11 3.40986 101.53947 14743 ft 409 kts 346°
2026-05-06 23:11 3.43732 101.53185 15131 ft 411 kts 346°
2026-05-06 23:11 3.46500 101.52418 15518 ft 414 kts 346°
2026-05-06 23:12 3.49278 101.51647 15889 ft 416 kts 346°
2026-05-06 23:12 3.52079 101.50870 16256 ft 418 kts 346°
2026-05-06 23:12 3.54891 101.50090 16620 ft 421 kts 346°
2026-05-06 23:12 3.57726 101.49304 16984 ft 423 kts 346°
2026-05-06 23:13 3.60572 101.48514 17343 ft 425 kts 346°
2026-05-06 23:13 3.63430 101.47721 17682 ft 427 kts 346°
2026-05-06 23:13 3.66299 101.46925 18020 ft 429 kts 346°
2026-05-06 23:13 3.69154 101.46133 18307 ft 432 kts 346°
2026-05-06 23:14 3.72055 101.45328 18602 ft 434 kts 346°
2026-05-06 23:14 3.74966 101.44520 18890 ft 436 kts 346°
2026-05-06 23:14 3.77897 101.43706 19167 ft 437 kts 346°
2026-05-06 23:14 3.80836 101.42890 19435 ft 439 kts 346°
2026-05-06 23:15 3.83790 101.42065 19703 ft 441 kts 345°
2026-05-06 23:15 3.86686 101.41021 19975 ft 444 kts 338°
2026-05-06 23:15 3.89517 101.39777 20236 ft 446 kts 336°
2026-05-06 23:15 3.92350 101.38482 20491 ft 448 kts 336°
2026-05-06 23:16 3.95184 101.37176 20737 ft 450 kts 336°
2026-05-06 23:16 3.98035 101.35872 20986 ft 451 kts 336°
2026-05-06 23:16 4.00904 101.34573 21226 ft 453 kts 337°
2026-05-06 23:16 4.03785 101.33280 21470 ft 454 kts 337°
2026-05-06 23:17 4.06682 101.31987 21693 ft 456 kts 337°
2026-05-06 23:17 4.09591 101.30692 21909 ft 458 kts 337°
2026-05-06 23:17 4.12507 101.29396 22141 ft 459 kts 337°
2026-05-06 23:17 4.15437 101.28093 22365 ft 461 kts 337°
2026-05-06 23:18 4.18335 101.26804 22574 ft 462 kts 337°
2026-05-06 23:18 4.21320 101.25476 22779 ft 464 kts 337°
2026-05-06 23:18 4.24235 101.24178 22983 ft 465 kts 337°
2026-05-06 23:18 4.27237 101.22841 23182 ft 467 kts 337°
2026-05-06 23:19 4.30169 101.21535 23379 ft 468 kts 337°
2026-05-06 23:19 4.33148 101.20208 23535 ft 470 kts 337°
2026-05-06 23:19 4.36139 101.18876 23700 ft 471 kts 336°
2026-05-06 23:19 4.39137 101.17540 23843 ft 472 kts 336°
2026-05-06 23:20 4.42140 101.16202 24010 ft 472 kts 336°
2026-05-06 23:20 4.45147 101.14863 24164 ft 473 kts 336°
2026-05-06 23:20 4.48158 101.13521 24313 ft 475 kts 336°
2026-05-06 23:20 4.51184 101.12172 24453 ft 476 kts 336°
2026-05-06 23:21 4.54212 101.10822 24608 ft 477 kts 336°
2026-05-06 23:21 4.57244 101.09471 24754 ft 477 kts 336°
2026-05-06 23:21 4.60293 101.08131 24888 ft 479 kts 337°
2026-05-06 23:21 4.63360 101.06810 25028 ft 479 kts 337°
2026-05-06 23:22 4.66430 101.05497 25167 ft 480 kts 337°
2026-05-06 23:22 4.69513 101.04180 25308 ft 482 kts 337°
2026-05-06 23:22 4.72607 101.02854 25440 ft 482 kts 337°
2026-05-06 23:22 4.75694 101.01528 25572 ft 483 kts 337°
2026-05-06 23:23 4.78746 101.00215 25696 ft 484 kts 337°
2026-05-06 23:23 4.81850 100.98877 25821 ft 485 kts 337°
2026-05-06 23:23 4.84958 100.97538 25951 ft 486 kts 337°
2026-05-06 23:23 4.88069 100.96197 26068 ft 487 kts 337°
2026-05-06 23:24 4.91187 100.94853 26197 ft 488 kts 337°
2026-05-06 23:24 4.94312 100.93506 26312 ft 489 kts 337°
2026-05-06 23:24 4.97444 100.92157 26428 ft 489 kts 337°
2026-05-06 23:24 5.00573 100.90807 26541 ft 490 kts 337°
2026-05-06 23:25 5.03710 100.89452 26655 ft 491 kts 337°
2026-05-06 23:25 5.06851 100.88094 26770 ft 492 kts 337°
2026-05-06 23:25 5.10002 100.86730 26890 ft 493 kts 337°
2026-05-06 23:25 5.13152 100.85367 26999 ft 493 kts 337°
2026-05-06 23:26 5.16269 100.84018 27140 ft 493 kts 337°
2026-05-06 23:26 5.19413 100.82658 27318 ft 492 kts 337°
2026-05-06 23:26 5.22562 100.81295 27493 ft 492 kts 337°
2026-05-06 23:26 5.25700 100.79937 27646 ft 491 kts 337°
2026-05-06 23:27 5.28849 100.78574 27799 ft 491 kts 337°
2026-05-06 23:27 5.31983 100.77216 27964 ft 491 kts 337°
2026-05-06 23:27 5.35119 100.75859 28137 ft 490 kts 337°
2026-05-06 23:27 5.38227 100.74453 28315 ft 490 kts 333°
2026-05-06 23:28 5.41233 100.72839 28469 ft 490 kts 331°
2026-05-06 23:28 5.44193 100.71139 28632 ft 490 kts 330°
2026-05-06 23:28 5.47129 100.69418 28822 ft 489 kts 330°
2026-05-06 23:28 5.50069 100.67701 28993 ft 489 kts 330°
2026-05-06 23:29 5.53015 100.66000 29146 ft 488 kts 330°
2026-05-06 23:29 5.55964 100.64315 29333 ft 488 kts 330°
2026-05-06 23:29 5.58920 100.62637 29507 ft 488 kts 331°
2026-05-06 23:29 5.61876 100.60964 29679 ft 488 kts 331°
2026-05-06 23:30 5.64828 100.59294 29856 ft 487 kts 331°
2026-05-06 23:30 5.68972 100.56948 30083 ft 487 kts 331°
2026-05-06 23:30 5.71893 100.55292 30242 ft 486 kts 331°
2026-05-06 23:31 5.74841 100.53620 30391 ft 486 kts 331°
2026-05-06 23:31 5.77783 100.51952 30544 ft 486 kts 331°
2026-05-06 23:31 5.80712 100.50265 30715 ft 485 kts 330°
2026-05-06 23:31 5.83614 100.48538 30873 ft 485 kts 329°
2026-05-06 23:32 5.86502 100.46794 31041 ft 484 kts 329°
2026-05-06 23:32 5.89384 100.45047 31229 ft 483 kts 329°
2026-05-06 23:32 5.92262 100.43305 31415 ft 482 kts 329°
2026-05-06 23:32 5.95133 100.41574 31616 ft 481 kts 329°
2026-05-06 23:33 5.98003 100.39847 31771 ft 481 kts 329°
2026-05-06 23:33 6.00876 100.38122 31949 ft 481 kts 329°
2026-05-06 23:33 6.03750 100.36398 32119 ft 480 kts 329°
2026-05-06 23:33 6.06615 100.34679 32302 ft 479 kts 329°
2026-05-06 23:34 6.09437 100.32986 32480 ft 478 kts 329°
2026-05-06 23:34 6.12293 100.31272 32668 ft 478 kts 329°
2026-05-06 23:34 6.15144 100.29560 32831 ft 477 kts 329°
2026-05-06 23:34 6.17995 100.27848 33000 ft 477 kts 329°
2026-05-06 23:35 6.20849 100.26134 33175 ft 476 kts 329°
2026-05-06 23:35 6.23696 100.24424 33348 ft 476 kts 329°
2026-05-06 23:35 6.26537 100.22717 33499 ft 476 kts 329°
2026-05-06 23:35 6.29375 100.21012 33664 ft 475 kts 329°
2026-05-06 23:36 6.32205 100.19311 33802 ft 473 kts 329°
2026-05-06 23:36 6.37861 100.15911 33816 ft 475 kts 329°
2026-05-06 23:37 6.43417 100.12311 33810 ft 475 kts 321°
2026-05-06 23:37 6.48044 100.07563 33819 ft 476 kts 312°
2026-05-06 23:38 6.52415 100.02617 33813 ft 476 kts 312°
2026-05-06 23:38 6.56837 99.97662 33818 ft 476 kts 313°
2026-05-06 23:39 6.61285 99.92735 33818 ft 475 kts 313°
2026-05-06 23:39 6.65737 99.87822 33813 ft 475 kts 313°
2026-05-06 23:40 6.70187 99.82908 33818 ft 475 kts 313°
2026-05-06 23:40 6.74632 99.77995 33811 ft 475 kts 313°
2026-05-06 23:41 6.79082 99.73075 33813 ft 475 kts 313°
2026-05-06 23:41 6.83525 99.68161 33811 ft 475 kts 313°
2026-05-06 23:42 6.87969 99.63244 33810 ft 475 kts 313°
2026-05-06 23:42 6.92393 99.58348 33811 ft 476 kts 313°
2026-05-06 23:43 6.96848 99.53414 33813 ft 476 kts 312°
2026-05-06 23:43 7.01315 99.48480 33816 ft 477 kts 313°
2026-05-06 23:44 7.05864 99.43619 33812 ft 477 kts 314°
2026-05-06 23:44 7.10445 99.38776 33816 ft 478 kts 314°
2026-05-06 23:45 7.15021 99.33919 33814 ft 478 kts 313°
2026-05-06 23:45 7.19595 99.29047 33816 ft 478 kts 313°
2026-05-06 23:46 7.24162 99.24176 33817 ft 478 kts 313°
2026-05-06 23:46 7.28729 99.19304 33819 ft 478 kts 313°
2026-05-06 23:47 7.33297 99.14429 33815 ft 478 kts 313°
2026-05-06 23:47 7.37858 99.09562 33820 ft 477 kts 313°
2026-05-06 23:48 7.42416 99.04695 33824 ft 477 kts 313°
2026-05-06 23:48 7.46966 98.99835 33825 ft 476 kts 313°
2026-05-06 23:49 7.51512 98.94979 33820 ft 476 kts 313°
2026-05-06 23:49 7.56046 98.90132 33820 ft 475 kts 313°
2026-05-06 23:50 7.60547 98.85321 33819 ft 474 kts 313°
2026-05-06 23:50 7.67334 98.78060 33822 ft 474 kts 313°
2026-05-06 23:51 7.71857 98.73220 33820 ft 473 kts 313°
2026-05-06 23:51 7.76335 98.68345 33821 ft 474 kts 312°
2026-05-06 23:52 7.80827 98.63481 33821 ft 474 kts 313°
2026-05-06 23:52 7.85366 98.58633 33822 ft 475 kts 313°
2026-05-06 23:53 7.89875 98.53809 33820 ft 476 kts 313°
2026-05-06 23:53 7.94419 98.48938 33826 ft 477 kts 313°
2026-05-06 23:54 7.98973 98.44049 33826 ft 478 kts 313°
2026-05-06 23:54 8.03540 98.39144 33832 ft 479 kts 313°
2026-05-06 23:55 8.07343 98.35061 33831 ft 480 kts 313°
2026-05-06 23:55 8.12217 98.30452 33830 ft 481 kts 324°
2026-05-06 23:56 8.18076 98.27187 33837 ft 481 kts 334°
2026-05-06 23:56 8.24118 98.24254 33823 ft 481 kts 334°
2026-05-06 23:57 8.30097 98.21301 33825 ft 481 kts 333°
2026-05-06 23:57 8.36092 98.18288 33819 ft 480 kts 333°
2026-05-06 23:58 8.42074 98.15271 33823 ft 480 kts 333°
2026-05-06 23:58 8.48015 98.12276 33821 ft 479 kts 333°
2026-05-06 23:59 8.53983 98.09269 33824 ft 478 kts 333°
2026-05-06 23:59 8.59937 98.06272 33821 ft 477 kts 333°
2026-05-07 00:00 8.65880 98.03285 33824 ft 476 kts 334°
2026-05-07 00:00 8.71813 98.00303 33822 ft 476 kts 334°
2026-05-07 00:01 8.77734 97.97323 33824 ft 475 kts 334°
2026-05-07 00:01 8.83608 97.94366 33832 ft 474 kts 334°
2026-05-07 00:02 8.89510 97.91393 33829 ft 474 kts 334°
2026-05-07 00:02 8.95408 97.88421 33833 ft 473 kts 334°
2026-05-07 00:03 9.01296 97.85454 33828 ft 473 kts 334°
2026-05-07 00:03 9.07181 97.82487 33829 ft 472 kts 334°
2026-05-07 00:04 9.13064 97.79518 33827 ft 472 kts 334°
2026-05-07 00:04 9.18942 97.76550 33828 ft 472 kts 334°
2026-05-07 00:05 9.24818 97.73582 33835 ft 472 kts 334°
2026-05-07 00:05 9.30688 97.70616 33837 ft 472 kts 334°
2026-05-07 00:06 9.36521 97.67668 33831 ft 472 kts 334°
2026-05-07 00:06 9.42405 97.64693 33832 ft 472 kts 334°
2026-05-07 00:07 9.48293 97.61714 33835 ft 473 kts 334°
2026-05-07 00:07 9.54183 97.58732 33829 ft 474 kts 334°
2026-05-07 00:08 9.60083 97.55745 33832 ft 474 kts 334°
2026-05-07 00:08 9.65989 97.52754 33829 ft 475 kts 334°
2026-05-07 00:09 9.71899 97.49759 33832 ft 475 kts 334°
2026-05-07 00:09 9.77819 97.46758 33828 ft 475 kts 334°
2026-05-07 00:10 9.83731 97.43760 33829 ft 475 kts 334°
2026-05-07 00:10 9.89648 97.40759 33832 ft 475 kts 334°
2026-05-07 00:11 9.95523 97.37776 33830 ft 475 kts 334°
2026-05-07 00:11 10.01437 97.34775 33833 ft 475 kts 334°
2026-05-07 00:12 10.07367 97.31791 33830 ft 474 kts 334°
2026-05-07 00:12 10.13284 97.28819 33831 ft 474 kts 334°
2026-05-07 00:13 10.19196 97.25847 33831 ft 474 kts 334°
2026-05-07 00:13 10.25075 97.22888 33836 ft 474 kts 334°
2026-05-07 00:14 10.30983 97.19911 33833 ft 474 kts 334°
2026-05-07 00:14 10.36884 97.16937 33841 ft 474 kts 334°
2026-05-07 00:15 10.42794 97.13957 33838 ft 474 kts 334°
2026-05-07 00:15 10.48706 97.10975 33842 ft 474 kts 334°
2026-05-07 00:16 10.54576 97.08013 33841 ft 474 kts 334°
2026-05-07 00:16 10.60488 97.05028 33841 ft 474 kts 334°
2026-05-07 00:17 10.66404 97.02040 33841 ft 475 kts 334°
2026-05-07 00:17 10.72325 96.99049 33846 ft 475 kts 334°
2026-05-07 00:18 10.78254 96.96051 33843 ft 476 kts 334°
2026-05-07 00:18 10.84190 96.93050 33844 ft 476 kts 334°
2026-05-07 00:19 10.90127 96.90046 33843 ft 477 kts 334°
2026-05-07 00:19 10.96036 96.87054 33843 ft 477 kts 334°
2026-05-07 00:20 11.01980 96.84044 33845 ft 477 kts 334°
2026-05-07 00:20 11.07930 96.81030 33848 ft 477 kts 334°
2026-05-07 00:21 11.13872 96.78018 33851 ft 477 kts 334°
2026-05-07 00:21 11.19813 96.75006 33846 ft 477 kts 334°
2026-05-07 00:22 11.25756 96.71990 33849 ft 477 kts 334°
2026-05-07 00:22 11.31691 96.68978 33851 ft 476 kts 334°
2026-05-07 00:23 11.37629 96.65963 33847 ft 476 kts 334°
2026-05-07 00:23 11.43553 96.62953 33851 ft 476 kts 334°
2026-05-07 00:24 11.49479 96.59941 33849 ft 475 kts 334°
2026-05-07 00:24 11.55403 96.56928 33847 ft 475 kts 334°
2026-05-07 00:25 11.61319 96.53918 33850 ft 475 kts 334°
2026-05-07 00:25 11.67225 96.50911 33848 ft 474 kts 334°
2026-05-07 00:26 11.73097 96.47921 33850 ft 474 kts 334°
2026-05-07 00:26 11.78997 96.44914 33855 ft 474 kts 334°
2026-05-07 00:27 11.84896 96.41906 33853 ft 474 kts 334°
2026-05-07 00:27 11.90636 96.38606 33844 ft 475 kts 324°
2026-05-07 00:28 11.95470 96.34009 33856 ft 475 kts 315°
2026-05-07 00:28 12.00092 96.29157 33853 ft 476 kts 315°
2026-05-07 00:29 12.04726 96.24329 33848 ft 476 kts 315°
2026-05-07 00:30 12.14040 96.14755 33854 ft 477 kts 315°
2026-05-07 00:30 12.18717 96.09955 33852 ft 477 kts 315°
2026-05-07 00:31 12.23393 96.05151 33852 ft 477 kts 315°
2026-05-07 00:31 12.28076 96.00336 33850 ft 477 kts 315°
2026-05-07 00:32 12.32750 95.95527 33852 ft 476 kts 315°
2026-05-07 00:32 12.37390 95.90751 33850 ft 476 kts 315°
2026-05-07 00:33 12.42054 95.85948 33851 ft 476 kts 315°
2026-05-07 00:33 12.46718 95.81142 33850 ft 475 kts 315°
2026-05-07 00:34 12.51372 95.76343 33853 ft 475 kts 315°
2026-05-07 00:34 12.56030 95.71539 33849 ft 475 kts 315°
2026-05-07 00:35 12.60680 95.66739 33853 ft 475 kts 315°
2026-05-07 00:35 12.65336 95.61930 33854 ft 475 kts 315°
2026-05-07 00:36 12.69963 95.57149 33852 ft 475 kts 315°
2026-05-07 00:36 12.74588 95.52367 33855 ft 476 kts 315°
2026-05-07 00:37 12.79250 95.47544 33853 ft 477 kts 315°
2026-05-07 00:37 12.83922 95.42708 33852 ft 478 kts 315°
2026-05-07 00:38 12.88570 95.37836 33849 ft 478 kts 315°
2026-05-07 00:38 12.93193 95.32909 33851 ft 479 kts 314°
2026-05-07 00:39 12.97812 95.27979 33852 ft 480 kts 315°
2026-05-07 00:39 13.02445 95.23043 33851 ft 480 kts 315°
2026-05-07 00:40 13.07085 95.18101 33851 ft 481 kts 315°
2026-05-07 00:40 13.11725 95.13160 33853 ft 481 kts 315°
2026-05-07 00:41 13.16365 95.08215 33851 ft 481 kts 315°
2026-05-07 00:41 13.21009 95.03262 33853 ft 481 kts 315°
2026-05-07 00:42 13.25618 94.98344 33851 ft 481 kts 315°
2026-05-07 00:42 13.30256 94.93393 33850 ft 481 kts 314°
2026-05-07 00:43 13.34884 94.88448 33851 ft 480 kts 314°
2026-05-07 00:43 13.39515 94.83497 33852 ft 480 kts 314°
2026-05-07 00:44 13.43356 94.79389 33853 ft 480 kts 314°
2026-05-07 00:44 13.47983 94.74438 33849 ft 480 kts 314°
2026-05-07 00:45 13.52607 94.69487 33852 ft 480 kts 314°
2026-05-07 00:45 13.57226 94.64538 33852 ft 480 kts 314°
2026-05-07 00:46 13.61843 94.59589 33852 ft 480 kts 314°
2026-05-07 00:46 13.66463 94.54632 33851 ft 480 kts 314°
2026-05-07 00:47 13.71086 94.49671 33851 ft 480 kts 314°
2026-05-07 00:47 13.75701 94.44714 33855 ft 480 kts 314°
2026-05-07 00:48 13.80322 94.39748 33857 ft 480 kts 314°
2026-05-07 00:48 13.84941 94.34781 33855 ft 480 kts 314°
2026-05-07 00:49 13.89531 94.29842 33851 ft 480 kts 314°
2026-05-07 00:49 13.94148 94.24872 33851 ft 480 kts 314°
2026-05-07 00:50 13.98763 94.19900 33853 ft 480 kts 314°
2026-05-07 00:50 14.03387 94.14916 33850 ft 480 kts 314°
2026-05-07 00:51 14.08002 94.09938 33854 ft 480 kts 314°
2026-05-07 00:51 14.12620 94.04953 33852 ft 480 kts 314°
2026-05-07 00:52 14.17198 94.00009 33851 ft 480 kts 313°
2026-05-07 00:52 14.21801 93.95035 33852 ft 479 kts 313°
2026-05-07 00:53 14.26403 93.90058 33854 ft 479 kts 313°
2026-05-07 00:53 14.31002 93.85083 33852 ft 478 kts 313°
2026-05-07 00:54 14.35560 93.80147 33851 ft 478 kts 313°
2026-05-07 00:54 14.40170 93.75153 33852 ft 477 kts 313°
2026-05-07 00:55 14.44718 93.70223 33852 ft 477 kts 313°
2026-05-07 00:55 14.49282 93.65271 33852 ft 476 kts 313°
2026-05-07 00:56 14.53847 93.60316 33849 ft 476 kts 313°
2026-05-07 00:56 14.58416 93.55353 33854 ft 476 kts 313°
2026-05-07 00:57 14.62975 93.50398 33850 ft 476 kts 313°
2026-05-07 00:57 14.67530 93.45444 33853 ft 476 kts 313°
2026-05-07 00:58 14.72087 93.40484 33855 ft 476 kts 313°
2026-05-07 00:58 14.76639 93.35527 33855 ft 475 kts 312°
2026-05-07 00:59 14.83467 93.28086 33856 ft 475 kts 312°
2026-05-07 01:00 14.87990 93.23152 33856 ft 475 kts 312°
2026-05-07 01:00 14.92560 93.18164 33854 ft 475 kts 312°
2026-05-07 01:01 14.97074 93.13233 33855 ft 475 kts 312°
2026-05-07 01:01 15.01613 93.08273 33855 ft 475 kts 312°
2026-05-07 01:02 15.06151 93.03310 33856 ft 474 kts 312°
2026-05-07 01:02 15.10690 92.98342 33854 ft 474 kts 312°
2026-05-07 01:03 15.15219 92.93382 33857 ft 474 kts 312°
2026-05-07 01:03 15.19750 92.88417 33854 ft 474 kts 312°
2026-05-07 01:04 15.24273 92.83456 33854 ft 474 kts 311°
2026-05-07 01:04 15.28799 92.78489 33851 ft 474 kts 311°
2026-05-07 01:05 15.33290 92.73557 33858 ft 473 kts 311°
2026-05-07 01:05 15.37811 92.68589 33865 ft 473 kts 311°
2026-05-07 01:06 15.41931 92.63301 33858 ft 469 kts 298°
2026-05-07 01:06 15.44416 92.57105 33855 ft 465 kts 283°
2026-05-07 01:07 15.45972 92.50592 33858 ft 465 kts 282°
2026-05-07 01:07 15.47499 92.44126 33855 ft 465 kts 282°
2026-05-07 01:08 15.49081 92.37615 33858 ft 465 kts 282°
2026-05-07 01:08 15.50680 92.31111 33856 ft 466 kts 282°
2026-05-07 01:09 15.52281 92.24601 33859 ft 466 kts 282°
2026-05-07 01:09 15.53879 92.18088 33858 ft 466 kts 282°
2026-05-07 01:10 15.55464 92.11610 33856 ft 466 kts 282°
2026-05-07 01:10 15.57068 92.05050 33856 ft 466 kts 282°
2026-05-07 01:11 15.58648 91.98573 33857 ft 466 kts 282°
2026-05-07 01:11 15.60225 91.92051 33855 ft 466 kts 282°
2026-05-07 01:12 15.61796 91.85522 33860 ft 466 kts 282°
2026-05-07 01:12 15.63368 91.78987 33856 ft 466 kts 282°
2026-05-07 01:13 15.64938 91.72453 33855 ft 466 kts 282°
2026-05-07 01:13 15.66505 91.65922 33856 ft 467 kts 282°
2026-05-07 01:14 15.68064 91.59420 33859 ft 467 kts 282°
2026-05-07 01:14 15.69630 91.52877 33858 ft 467 kts 282°
2026-05-07 01:15 15.71193 91.46336 33858 ft 467 kts 282°
2026-05-07 01:15 15.72755 91.39791 33856 ft 467 kts 282°
2026-05-07 01:16 15.74314 91.33250 33857 ft 467 kts 282°
2026-05-07 01:16 15.75872 91.26705 33857 ft 466 kts 281°
2026-05-07 01:17 15.77427 91.20163 33855 ft 466 kts 282°
2026-05-07 01:17 15.78976 91.13637 33857 ft 465 kts 281°
2026-05-07 01:18 15.80523 91.07110 33858 ft 465 kts 281°
2026-05-07 01:18 15.82057 91.00628 33857 ft 465 kts 281°
2026-05-07 01:19 15.83599 90.94103 33856 ft 465 kts 281°
2026-05-07 01:19 15.85139 90.87577 33856 ft 465 kts 281°
2026-05-07 01:20 15.86677 90.81053 33856 ft 465 kts 281°
2026-05-07 01:20 15.88214 90.74520 33858 ft 465 kts 281°
2026-05-07 01:21 15.89750 90.67985 33858 ft 465 kts 281°
2026-05-07 01:21 15.91282 90.61456 33858 ft 465 kts 281°
2026-05-07 01:22 15.92812 90.54925 33858 ft 465 kts 281°
2026-05-07 01:22 15.94330 90.48438 33858 ft 465 kts 281°
2026-05-07 01:23 15.95855 90.41911 33860 ft 464 kts 281°
2026-05-07 01:23 15.97377 90.35387 33861 ft 464 kts 281°
2026-05-07 01:24 15.98894 90.28874 33862 ft 464 kts 281°
2026-05-07 01:24 16.00409 90.22362 33859 ft 463 kts 281°
2026-05-07 01:25 16.01922 90.15856 33860 ft 463 kts 281°
2026-05-07 01:25 16.03477 90.09356 33861 ft 463 kts 281°
2026-05-07 01:26 16.05049 90.02863 33859 ft 463 kts 281°
2026-05-07 01:26 16.06604 89.96412 33859 ft 463 kts 281°
2026-05-07 01:27 16.08162 89.89921 33859 ft 463 kts 281°
2026-05-07 01:27 16.09717 89.83423 33866 ft 463 kts 281°
2026-05-07 01:28 16.11271 89.76923 33863 ft 463 kts 281°
2026-05-07 01:28 16.12822 89.70428 33860 ft 463 kts 281°
2026-05-07 01:29 16.14109 89.65030 33863 ft 462 kts 281°
2026-05-07 01:29 16.15907 89.57478 33860 ft 462 kts 281°
2026-05-07 01:30 16.17452 89.50977 33861 ft 462 kts 281°
2026-05-07 01:30 16.18993 89.44487 33863 ft 462 kts 281°
2026-05-07 01:31 16.20272 89.39090 33863 ft 462 kts 281°
2026-05-07 01:31 16.21808 89.32602 33863 ft 462 kts 281°
2026-05-07 01:32 16.23343 89.26110 33860 ft 461 kts 281°
2026-05-07 01:32 16.24873 89.19628 33865 ft 461 kts 281°
2026-05-07 01:33 16.26400 89.13153 33866 ft 460 kts 281°
2026-05-07 01:33 16.27928 89.06686 33867 ft 460 kts 281°
2026-05-07 01:34 16.29502 89.00225 33865 ft 460 kts 281°
2026-05-07 01:34 16.31083 88.93778 33866 ft 460 kts 281°
2026-05-07 01:35 16.32657 88.87328 33866 ft 459 kts 281°
2026-05-07 01:35 16.34215 88.80920 33866 ft 459 kts 281°
2026-05-07 01:36 16.35778 88.74472 33865 ft 459 kts 281°
2026-05-07 01:36 16.37340 88.68024 33865 ft 459 kts 281°
2026-05-07 01:37 16.38898 88.61582 33864 ft 459 kts 281°
2026-05-07 01:37 16.40453 88.55143 33868 ft 458 kts 281°
2026-05-07 01:38 16.42007 88.48697 33867 ft 458 kts 281°
2026-05-07 01:38 16.43559 88.42255 33865 ft 458 kts 281°
2026-05-07 01:39 16.45106 88.35818 33865 ft 458 kts 281°
2026-05-07 01:39 16.46645 88.29413 33868 ft 458 kts 281°
2026-05-07 01:40 16.48187 88.22981 33863 ft 458 kts 281°
2026-05-07 01:40 16.49729 88.16540 33866 ft 457 kts 281°
2026-05-07 01:41 16.51269 88.10099 33865 ft 457 kts 281°
2026-05-07 01:41 16.52806 88.03663 33867 ft 457 kts 281°
2026-05-07 01:42 16.54328 87.97279 33866 ft 456 kts 281°
2026-05-07 01:42 16.55856 87.90860 33866 ft 456 kts 281°
2026-05-07 01:43 16.57384 87.84433 33868 ft 456 kts 281°
2026-05-07 01:43 16.58907 87.78018 33864 ft 456 kts 281°
2026-05-07 01:44 16.60426 87.71610 33865 ft 455 kts 281°
2026-05-07 01:44 16.61943 87.65199 33868 ft 455 kts 281°
2026-05-07 01:45 16.63458 87.58788 33868 ft 455 kts 281°
2026-05-07 01:45 16.64972 87.52374 33864 ft 455 kts 281°
2026-05-07 01:46 16.66482 87.45965 33867 ft 455 kts 281°
2026-05-07 01:46 16.67990 87.39556 33867 ft 455 kts 281°
2026-05-07 01:47 16.69485 87.33193 33869 ft 455 kts 281°
2026-05-07 01:47 16.70990 87.26778 33865 ft 455 kts 281°
2026-05-07 01:48 16.72490 87.20375 33865 ft 455 kts 281°
2026-05-07 01:48 16.73990 87.13970 33869 ft 455 kts 281°
2026-05-07 01:49 16.75513 87.07563 33869 ft 454 kts 281°
2026-05-07 01:49 16.77042 87.01159 33866 ft 454 kts 281°
2026-05-07 01:50 16.78566 86.94759 33866 ft 454 kts 281°
2026-05-07 01:50 16.80085 86.88357 33865 ft 454 kts 281°
2026-05-07 01:51 16.81600 86.81961 33866 ft 454 kts 281°
2026-05-07 01:51 16.83103 86.75605 33867 ft 453 kts 281°
2026-05-07 01:52 16.84612 86.69214 33866 ft 453 kts 281°
2026-05-07 01:52 16.86119 86.62825 33870 ft 453 kts 281°
2026-05-07 01:53 16.87626 86.56428 33869 ft 453 kts 281°
2026-05-07 01:53 16.89129 86.50035 33870 ft 453 kts 281°
2026-05-07 01:54 16.90627 86.43651 33869 ft 452 kts 281°
2026-05-07 01:54 16.92115 86.37305 33866 ft 452 kts 281°
2026-05-07 01:55 16.93607 86.30933 33868 ft 452 kts 281°
2026-05-07 01:55 16.95097 86.24558 33868 ft 451 kts 281°
2026-05-07 01:56 16.96586 86.18179 33875 ft 451 kts 281°
2026-05-07 01:56 16.98070 86.11811 33875 ft 451 kts 281°
2026-05-07 01:57 16.99553 86.05439 33873 ft 451 kts 281°
2026-05-07 01:57 17.01031 85.99076 33871 ft 450 kts 281°
2026-05-07 01:58 17.02507 85.92715 33874 ft 450 kts 281°
2026-05-07 01:58 17.03972 85.86391 33871 ft 450 kts 281°
2026-05-07 01:59 17.05444 85.80025 33871 ft 451 kts 281°
2026-05-07 01:59 17.06918 85.73643 33877 ft 451 kts 281°
2026-05-07 02:00 17.08387 85.67274 33874 ft 451 kts 281°
2026-05-07 02:00 17.09856 85.60895 33872 ft 451 kts 281°
2026-05-07 02:01 17.11316 85.54545 33874 ft 451 kts 281°
2026-05-07 02:01 17.12783 85.48154 33872 ft 452 kts 281°
2026-05-07 02:02 17.14247 85.41764 33879 ft 452 kts 281°
2026-05-07 02:02 17.15710 85.35371 33871 ft 452 kts 281°
2026-05-07 02:03 17.17176 85.28976 33872 ft 452 kts 281°
2026-05-07 02:03 17.18689 85.22592 33871 ft 452 kts 281°
2026-05-07 02:04 17.20216 85.16207 33868 ft 452 kts 281°
2026-05-07 02:04 17.21737 85.09812 33869 ft 452 kts 281°
2026-05-07 02:05 17.23249 85.03425 33875 ft 452 kts 281°
2026-05-07 02:05 17.24748 84.97078 33882 ft 452 kts 281°
2026-05-07 02:06 17.26257 84.90683 33871 ft 452 kts 281°
2026-05-07 02:06 17.27761 84.84297 33872 ft 452 kts 281°
2026-05-07 02:07 17.29266 84.77897 33872 ft 452 kts 281°
2026-05-07 02:07 17.31509 84.68343 33873 ft 452 kts 281°
2026-05-07 02:08 17.33008 84.61947 33871 ft 452 kts 281°
2026-05-07 02:08 17.34505 84.55546 33873 ft 452 kts 281°
2026-05-07 02:09 17.36000 84.49156 33870 ft 452 kts 281°
2026-05-07 02:09 17.37558 84.42786 33873 ft 452 kts 282°
2026-05-07 02:10 17.39139 84.36430 33876 ft 451 kts 282°
2026-05-07 02:10 17.40711 84.30069 33874 ft 451 kts 282°
2026-05-07 02:11 17.42262 84.23758 33873 ft 450 kts 282°
2026-05-07 02:11 17.43821 84.17397 33874 ft 450 kts 282°
2026-05-07 02:12 17.45376 84.11047 33875 ft 450 kts 282°
2026-05-07 02:12 17.46927 84.04701 33873 ft 449 kts 282°
2026-05-07 02:13 17.48475 83.98359 33876 ft 449 kts 282°
2026-05-07 02:13 17.50021 83.92018 33876 ft 449 kts 282°
2026-05-07 02:14 17.51613 83.85692 33874 ft 449 kts 282°
2026-05-07 02:14 17.53220 83.79422 33876 ft 449 kts 282°
2026-05-07 02:15 17.54835 83.73096 33878 ft 449 kts 282°
2026-05-07 02:15 17.56438 83.66783 33874 ft 448 kts 282°
2026-05-07 02:16 17.57767 83.61532 33875 ft 448 kts 282°
2026-05-07 02:16 17.59366 83.55210 33874 ft 448 kts 282°
2026-05-07 02:17 17.60962 83.48892 33878 ft 448 kts 282°
2026-05-07 02:17 17.62556 83.42572 33882 ft 448 kts 282°
2026-05-07 02:18 17.64147 83.36254 33883 ft 448 kts 282°
2026-05-07 02:18 17.65726 83.29975 33885 ft 448 kts 282°
2026-05-07 02:19 17.67367 83.23671 33890 ft 449 kts 284°
2026-05-07 02:19 17.69344 83.17449 33885 ft 450 kts 286°
2026-05-07 02:20 17.71401 83.11257 33888 ft 450 kts 286°
2026-05-07 02:20 17.73435 83.05048 33883 ft 450 kts 286°
2026-05-07 02:21 17.75432 82.98872 33889 ft 449 kts 286°
2026-05-07 02:21 17.77427 82.92664 33897 ft 449 kts 286°
2026-05-07 02:22 17.79348 82.86684 33929 ft 432 kts 286°
2026-05-07 02:22 17.80286 82.83775 33907 ft 409 kts 285°
2026-05-07 02:22 17.81173 82.81023 33912 ft 386 kts 285°
2026-05-07 02:23 17.82013 82.78411 33924 ft 372 kts 285°
2026-05-07 02:23 17.82818 82.75903 33974 ft 352 kts 285°
2026-05-07 02:23 17.83579 82.73529 33909 ft 334 kts 285°
2026-05-07 02:23 17.84301 82.71275 33901 ft 318 kts 285°
2026-05-07 02:24 17.84989 82.69123 33896 ft 304 kts 284°
2026-05-07 02:24 17.85648 82.67061 33899 ft 291 kts 284°
2026-05-07 02:24 17.86280 82.65085 33902 ft 280 kts 284°
2026-05-07 02:24 17.86887 82.63181 33901 ft 270 kts 284°
2026-05-07 02:25 17.87467 82.61366 33898 ft 261 kts 284°
2026-05-07 02:25 17.88032 82.59594 33938 ft 248 kts 284°
2026-05-07 02:25 17.88563 82.57935 33924 ft 233 kts 284°
2026-05-07 02:25 17.89062 82.56375 33906 ft 218 kts 283°
2026-05-07 02:26 17.89529 82.54915 33904 ft 203 kts 283°
2026-05-07 02:26 17.89963 82.53560 33872 ft 189 kts 282°
2026-05-07 02:26 17.90373 82.52271 33663 ft 185 kts 282°
2026-05-07 02:26 17.90782 82.50975 33250 ft 191 kts 283°
2026-05-07 02:27 17.91206 82.49631 32864 ft 196 kts 283°
2026-05-07 02:27 17.91637 82.48272 32615 ft 195 kts 283°
2026-05-07 02:27 17.92060 82.46944 32459 ft 189 kts 283°
2026-05-07 02:27 17.92472 82.45651 32275 ft 185 kts 283°
2026-05-07 02:28 17.92880 82.44366 32009 ft 186 kts 283°
2026-05-07 02:28 17.93291 82.43070 31720 ft 188 kts 284°
2026-05-07 02:28 17.93706 82.41761 31472 ft 189 kts 284°
2026-05-07 02:28 17.94115 82.40478 31291 ft 186 kts 284°
2026-05-07 02:29 17.94523 82.39196 31106 ft 183 kts 284°
2026-05-07 02:29 17.94926 82.37929 30897 ft 183 kts 284°
2026-05-07 02:29 17.95328 82.36661 30665 ft 184 kts 284°
2026-05-07 02:29 17.95732 82.35389 30437 ft 184 kts 284°
2026-05-07 02:30 17.96137 82.34115 30255 ft 183 kts 284°
2026-05-07 02:30 17.96539 82.32848 30080 ft 182 kts 284°
2026-05-07 02:30 17.96937 82.31594 29883 ft 180 kts 285°
2026-05-07 02:30 17.97333 82.30348 29671 ft 179 kts 284°
2026-05-07 02:31 17.97727 82.29107 29463 ft 179 kts 284°
2026-05-07 02:31 17.98120 82.27868 29252 ft 179 kts 284°
2026-05-07 02:31 17.98512 82.26633 29058 ft 178 kts 284°
2026-05-07 02:31 17.98902 82.25404 28864 ft 177 kts 284°
2026-05-07 02:32 17.99289 82.24182 28682 ft 176 kts 284°
2026-05-07 02:32 17.99676 82.22961 28505 ft 175 kts 284°
2026-05-07 02:32 18.00061 82.21746 28333 ft 175 kts 284°
2026-05-07 02:32 18.00444 82.20538 28148 ft 174 kts 284°
2026-05-07 02:33 18.00826 82.19333 27972 ft 173 kts 284°
2026-05-07 02:33 18.01206 82.18133 27801 ft 173 kts 284°
2026-05-07 02:33 18.01585 82.16937 27648 ft 173 kts 284°
2026-05-07 02:33 18.01959 82.15754 27505 ft 172 kts 284°
2026-05-07 02:34 18.02335 82.14566 27380 ft 171 kts 284°
2026-05-07 02:34 18.02709 82.13384 27258 ft 170 kts 284°
2026-05-07 02:34 18.03082 82.12205 27125 ft 170 kts 284°
2026-05-07 02:34 18.03454 82.11029 27007 ft 170 kts 284°
2026-05-07 02:35 18.03826 82.09854 26879 ft 169 kts 284°
2026-05-07 02:35 18.04195 82.08685 26775 ft 168 kts 284°
2026-05-07 02:35 18.04564 82.07518 26677 ft 168 kts 284°
2026-05-07 02:35 18.04932 82.06354 26572 ft 168 kts 284°
2026-05-07 02:36 18.05299 82.05193 26472 ft 167 kts 284°
2026-05-07 02:36 18.05664 82.04036 26381 ft 167 kts 284°
2026-05-07 02:36 18.06030 82.02879 26295 ft 166 kts 284°
2026-05-07 02:36 18.06394 82.01725 26210 ft 166 kts 284°
2026-05-07 02:37 18.06757 82.00574 26126 ft 166 kts 284°
2026-05-07 02:37 18.07120 81.99437 26054 ft 166 kts 285°
2026-05-07 02:37 18.07495 81.98291 25991 ft 166 kts 285°
2026-05-07 02:37 18.07871 81.97148 25924 ft 165 kts 285°
2026-05-07 02:38 18.08245 81.96010 25864 ft 165 kts 285°
2026-05-07 02:38 18.08619 81.94874 25817 ft 164 kts 285°
2026-05-07 02:38 18.08990 81.93743 25764 ft 164 kts 285°
2026-05-07 02:38 18.09362 81.92608 25707 ft 164 kts 285°
2026-05-07 02:39 18.09734 81.91475 25660 ft 164 kts 285°
2026-05-07 02:39 18.10106 81.90343 25620 ft 164 kts 285°
2026-05-07 02:39 18.10477 81.89212 25577 ft 163 kts 285°
2026-05-07 02:39 18.10847 81.88083 25532 ft 163 kts 285°
2026-05-07 02:40 18.11217 81.86954 25488 ft 163 kts 285°
2026-05-07 02:40 18.11587 81.85825 25450 ft 163 kts 285°
2026-05-07 02:40 18.11956 81.84699 25422 ft 163 kts 285°
2026-05-07 02:40 18.12319 81.83591 25391 ft 162 kts 285°
2026-05-07 02:41 18.12686 81.82469 25357 ft 162 kts 285°
2026-05-07 02:41 18.13054 81.81346 25327 ft 162 kts 285°
2026-05-07 02:41 18.13421 81.80225 25301 ft 162 kts 285°
2026-05-07 02:41 18.13787 81.79107 25268 ft 162 kts 285°
2026-05-07 02:42 18.14153 81.77987 25229 ft 162 kts 285°
2026-05-07 02:42 18.14519 81.76865 25200 ft 162 kts 285°
2026-05-07 02:42 18.14885 81.75746 25175 ft 162 kts 285°
2026-05-07 02:42 18.15250 81.74630 25156 ft 161 kts 285°
2026-05-07 02:43 18.15615 81.73515 25125 ft 161 kts 285°
2026-05-07 02:43 18.15978 81.72402 25094 ft 161 kts 285°
2026-05-07 02:43 18.16343 81.71287 25070 ft 161 kts 285°
2026-05-07 02:43 18.16706 81.70175 25039 ft 161 kts 285°
2026-05-07 02:44 18.17070 81.69060 25009 ft 161 kts 285°
2026-05-07 02:44 18.17428 81.67961 24990 ft 161 kts 285°
2026-05-07 02:44 18.17790 81.66852 24969 ft 160 kts 285°
2026-05-07 02:44 18.18153 81.65741 24939 ft 160 kts 285°
2026-05-07 02:45 18.18515 81.64633 24915 ft 160 kts 285°
2026-05-07 02:45 18.18877 81.63521 24898 ft 161 kts 285°
2026-05-07 02:45 18.19239 81.62412 24875 ft 160 kts 285°
2026-05-07 02:45 18.19600 81.61306 24858 ft 160 kts 285°
2026-05-07 02:46 18.19960 81.60200 24838 ft 160 kts 285°
2026-05-07 02:46 18.20321 81.59093 24822 ft 160 kts 285°
2026-05-07 02:46 18.20681 81.57988 24804 ft 159 kts 285°
2026-05-07 02:46 18.21041 81.56884 24790 ft 159 kts 285°
2026-05-07 02:47 18.21400 81.55781 24771 ft 159 kts 285°
2026-05-07 02:47 18.21759 81.54676 24752 ft 159 kts 285°
2026-05-07 02:47 18.22119 81.53573 24735 ft 159 kts 285°
2026-05-07 02:47 18.22473 81.52483 24725 ft 159 kts 285°
2026-05-07 02:48 18.22832 81.51382 24709 ft 159 kts 285°
2026-05-07 02:48 18.23190 81.50279 24699 ft 159 kts 285°
2026-05-07 02:48 18.23549 81.49176 24686 ft 159 kts 285°
2026-05-07 02:48 18.23908 81.48073 24666 ft 159 kts 285°
2026-05-07 02:49 18.24266 81.46972 24657 ft 159 kts 285°
2026-05-07 02:49 18.24623 81.45872 24651 ft 158 kts 285°
2026-05-07 02:49 18.24979 81.44776 24624 ft 158 kts 285°
2026-05-07 02:49 18.25336 81.43679 24610 ft 159 kts 285°
2026-05-07 02:50 18.25689 81.42591 24598 ft 159 kts 285°
2026-05-07 02:50 18.26046 81.41492 24584 ft 158 kts 285°
2026-05-07 02:50 18.26402 81.40397 24574 ft 158 kts 285°
2026-05-07 02:50 18.26757 81.39301 24565 ft 158 kts 285°
2026-05-07 02:51 18.27114 81.38204 24550 ft 158 kts 285°
2026-05-07 02:51 18.27469 81.37108 24542 ft 158 kts 285°
2026-05-07 02:51 18.27824 81.36014 24535 ft 158 kts 285°
2026-05-07 02:51 18.28179 81.34918 24530 ft 158 kts 285°
2026-05-07 02:52 18.28534 81.33826 24531 ft 158 kts 285°
2026-05-07 02:52 18.28888 81.32734 24522 ft 158 kts 285°
2026-05-07 02:52 18.29242 81.31640 24513 ft 158 kts 285°
2026-05-07 02:52 18.29596 81.30548 24490 ft 158 kts 285°
2026-05-07 02:53 18.29951 81.29454 24485 ft 158 kts 285°
2026-05-07 02:53 18.30304 81.28363 24482 ft 157 kts 285°
2026-05-07 02:53 18.30657 81.27273 24483 ft 157 kts 285°
2026-05-07 02:53 18.31009 81.26186 24479 ft 157 kts 285°
2026-05-07 02:54 18.31362 81.25096 24473 ft 157 kts 285°
2026-05-07 02:54 18.31714 81.24007 24471 ft 157 kts 285°
2026-05-07 02:54 18.32066 81.22919 24469 ft 157 kts 285°
2026-05-07 02:54 18.32418 81.21831 24461 ft 157 kts 285°
2026-05-07 02:55 18.32770 81.20744 24455 ft 157 kts 285°
2026-05-07 02:55 18.33123 81.19653 24453 ft 157 kts 285°
2026-05-07 02:55 18.33474 81.18566 24451 ft 157 kts 285°
2026-05-07 02:55 18.33821 81.17493 24449 ft 157 kts 285°
2026-05-07 02:56 18.34176 81.16395 24446 ft 156 kts 285°
2026-05-07 02:56 18.34521 81.15325 24441 ft 156 kts 285°
2026-05-07 02:56 18.34872 81.14238 24435 ft 156 kts 285°
2026-05-07 02:56 18.35222 81.13155 24431 ft 156 kts 285°
2026-05-07 02:57 18.35572 81.12070 24422 ft 156 kts 286°
2026-05-07 02:57 18.35922 81.10987 24415 ft 156 kts 286°
2026-05-07 02:57 18.36272 81.09903 24413 ft 156 kts 286°
2026-05-07 02:57 18.36622 81.08818 24411 ft 156 kts 286°
2026-05-07 02:58 18.36971 81.07736 24411 ft 156 kts 286°
2026-05-07 02:58 18.37320 81.06655 24410 ft 156 kts 286°
2026-05-07 02:58 18.37667 81.05577 24412 ft 156 kts 286°
2026-05-07 02:58 18.38016 81.04496 24406 ft 156 kts 286°
2026-05-07 02:59 18.38363 81.03418 24404 ft 156 kts 286°
2026-05-07 02:59 18.38711 81.02340 24396 ft 156 kts 286°
2026-05-07 02:59 18.39059 81.01260 24401 ft 155 kts 286°
2026-05-07 02:59 18.39405 81.00186 24403 ft 155 kts 286°
2026-05-07 03:00 18.39751 80.99110 24399 ft 155 kts 286°
2026-05-07 03:00 18.40097 80.98035 24399 ft 155 kts 286°
2026-05-07 03:00 18.40440 80.96970 24394 ft 155 kts 286°
2026-05-07 03:00 18.40786 80.95895 24400 ft 155 kts 286°
2026-05-07 03:01 18.41132 80.94820 24397 ft 155 kts 286°
2026-05-07 03:01 18.41478 80.93745 24399 ft 155 kts 286°
2026-05-07 03:01 18.41823 80.92672 24398 ft 155 kts 286°
2026-05-07 03:01 18.42169 80.91596 24384 ft 155 kts 286°
2026-05-07 03:02 18.42514 80.90522 24387 ft 155 kts 286°
2026-05-07 03:02 18.42859 80.89449 24383 ft 155 kts 286°
2026-05-07 03:02 18.43204 80.88376 24394 ft 154 kts 286°
2026-05-07 03:02 18.43549 80.87302 24389 ft 154 kts 286°
2026-05-07 03:03 18.43893 80.86229 24385 ft 155 kts 286°
2026-05-07 03:03 18.44121 80.85519 24398 ft 155 kts 286°
2026-05-07 03:03 18.44577 80.84099 24398 ft 154 kts 286°
2026-05-07 03:03 18.44922 80.83026 24404 ft 154 kts 286°
2026-05-07 03:04 18.45149 80.82318 24398 ft 154 kts 286°
2026-05-07 03:04 18.45492 80.81250 24397 ft 154 kts 286°
2026-05-07 03:04 18.45834 80.80183 24403 ft 154 kts 286°
2026-05-07 03:04 18.46176 80.79116 24395 ft 154 kts 286°
2026-05-07 03:05 18.46518 80.78048 24391 ft 154 kts 286°
2026-05-07 03:05 18.46860 80.76982 24408 ft 153 kts 287°
2026-05-07 03:05 18.47201 80.75917 24415 ft 153 kts 287°
2026-05-07 03:05 18.47543 80.74853 24418 ft 153 kts 286°
2026-05-07 03:06 18.47884 80.73786 24414 ft 154 kts 286°
2026-05-07 03:06 18.48226 80.72719 24403 ft 154 kts 287°
2026-05-07 03:06 18.48568 80.71651 24406 ft 153 kts 287°
2026-05-07 03:06 18.48909 80.70585 24386 ft 153 kts 286°
2026-05-07 03:07 18.49251 80.69519 24385 ft 153 kts 287°
2026-05-07 03:07 18.49591 80.68454 24397 ft 153 kts 286°
2026-05-07 03:07 18.49932 80.67390 24403 ft 153 kts 287°
2026-05-07 03:07 18.50272 80.66326 24397 ft 153 kts 287°
2026-05-07 03:08 18.50612 80.65264 24415 ft 153 kts 287°
2026-05-07 03:08 18.50946 80.64218 24418 ft 152 kts 287°
2026-05-07 03:08 18.51285 80.63158 24426 ft 153 kts 287°
2026-05-07 03:08 18.51625 80.62095 24439 ft 153 kts 287°
2026-05-07 03:09 18.51964 80.61033 24456 ft 153 kts 287°
2026-05-07 03:09 18.52303 80.59973 24472 ft 153 kts 287°
2026-05-07 03:09 18.52642 80.58912 24482 ft 153 kts 287°
2026-05-07 03:09 18.52978 80.57847 24494 ft 153 kts 286°
2026-05-07 03:10 18.53300 80.56782 24505 ft 153 kts 286°
2026-05-07 03:10 18.53621 80.55716 24511 ft 152 kts 286°
2026-05-07 03:10 18.53942 80.54648 24518 ft 152 kts 286°
2026-05-07 03:10 18.54262 80.53583 24519 ft 153 kts 286°
2026-05-07 03:11 18.54578 80.52532 24528 ft 152 kts 286°
2026-05-07 03:11 18.54898 80.51466 24528 ft 152 kts 286°
2026-05-07 03:11 18.55218 80.50403 24538 ft 152 kts 286°
2026-05-07 03:11 18.55537 80.49341 24545 ft 152 kts 286°
2026-05-07 03:12 18.55857 80.48276 24555 ft 152 kts 286°
2026-05-07 03:12 18.56175 80.47217 24564 ft 152 kts 286°
2026-05-07 03:12 18.56494 80.46155 24573 ft 152 kts 286°
2026-05-07 03:12 18.56812 80.45096 24582 ft 152 kts 286°
2026-05-07 03:13 18.57130 80.44036 24583 ft 152 kts 286°
2026-05-07 03:13 18.57448 80.42974 24587 ft 152 kts 286°
2026-05-07 03:13 18.57767 80.41910 24598 ft 152 kts 286°
2026-05-07 03:13 18.58084 80.40853 24607 ft 151 kts 286°
2026-05-07 03:14 18.58401 80.39796 24615 ft 151 kts 286°
2026-05-07 03:14 18.58719 80.38737 24618 ft 151 kts 286°
2026-05-07 03:14 18.59352 80.36623 24626 ft 151 kts 286°
2026-05-07 03:15 18.59668 80.35568 24634 ft 151 kts 286°
2026-05-07 03:15 18.59984 80.34513 24633 ft 151 kts 286°
2026-05-07 03:15 18.60300 80.33457 24646 ft 151 kts 286°
2026-05-07 03:15 18.60616 80.32404 24653 ft 150 kts 286°
2026-05-07 03:16 18.60930 80.31353 24656 ft 151 kts 286°
2026-05-07 03:16 18.61248 80.30292 24609 ft 156 kts 286°
2026-05-07 03:16 18.61607 80.29086 24133 ft 192 kts 287°
2026-05-07 03:16 18.62051 80.27599 23637 ft 229 kts 287°
2026-05-07 03:17 18.62546 80.25941 23423 ft 251 kts 287°
2026-05-07 03:17 18.62675 80.25510 23410 ft 254 kts 287°
2026-05-07 03:17 18.63101 80.24087 23450 ft 263 kts 287°
2026-05-07 03:17 18.63517 80.22696 23589 ft 270 kts 287°
2026-05-07 03:18 18.63951 80.21241 23777 ft 274 kts 287°
2026-05-07 03:18 18.64439 80.19607 23973 ft 280 kts 287°
2026-05-07 03:18 18.64864 80.18183 24135 ft 286 kts 287°
2026-05-07 03:18 18.65328 80.16631 24306 ft 291 kts 287°
2026-05-07 03:19 18.65829 80.14948 24501 ft 297 kts 287°
2026-05-07 03:19 18.66318 80.13307 24679 ft 302 kts 287°
2026-05-07 03:19 18.66792 80.11714 24853 ft 307 kts 287°
2026-05-07 03:19 18.67354 80.09832 25051 ft 313 kts 287°
2026-05-07 03:20 18.67862 80.08127 25225 ft 318 kts 287°
2026-05-07 03:20 18.68426 80.06233 25425 ft 324 kts 287°
2026-05-07 03:20 18.68973 80.04396 25610 ft 329 kts 287°
2026-05-07 03:20 18.69439 80.02826 25779 ft 333 kts 287°
2026-05-07 03:21 18.69777 80.01709 25888 ft 336 kts 287°
2026-05-07 03:21 18.70046 80.00700 25974 ft 338 kts 281°
2026-05-07 03:21 18.70081 80.00522 25981 ft 339 kts 279°
2026-05-07 03:27 18.70127 80.00234 25983 ft 340 kts 277°
2026-05-07 03:27 18.70319 79.98836 26076 ft 344 kts 284°
2026-05-07 03:27 18.70857 79.96869 26276 ft 347 kts 287°
2026-05-07 03:27 18.71419 79.95093 26467 ft 351 kts 288°
2026-05-07 03:28 18.72044 79.93188 26632 ft 355 kts 288°
2026-05-07 03:28 18.72674 79.91287 26819 ft 359 kts 288°
2026-05-07 03:28 18.73300 79.89368 27002 ft 362 kts 288°
2026-05-07 03:28 18.73912 79.87453 27181 ft 365 kts 287°
2026-05-07 03:29 18.74359 79.86029 27322 ft 367 kts 287°
2026-05-07 03:29 18.74928 79.84188 27495 ft 370 kts 287°
2026-05-07 03:29 18.75478 79.82385 27668 ft 372 kts 287°
2026-05-07 03:29 18.75524 79.82231 27681 ft 372 kts 287°